sat.trackr.live / text

‹ back to catalog

STARLINK-35670

NORAD 66480 · 2025-262AA

PAYLOAD ACTIVE UNKNOWN

§ Identity

Operator
Country
US
Launch date
2025-11-15
Launch site
AFETR
Launch vehicle
Mass (kg)
RCS (m²)

Purposes: comms

External: N2YO · Heavens-Above · Gunter

§ Orbital elements

Epoch: 2026-05-24T22:08:03.496416Z

Period
94.27 min
Inclination
43.0000°
Eccentricity
0.0001115
Mean motion
15.27583480 rev/d
Perigee alt
482.3 km
Apogee alt
483.8 km
Semi-major
6,861.2 km
B*
4.0557e-4
RAAN
225.7750°
Arg perigee
277.0859°
Mean anomaly
82.9866°
Rev number
3,056

§ Raw data

STARLINK-356701 66480U 25262AA  26144.92226269  .00010916  00000+0  40557-3 0  99962 66480  43.0000 225.7750 0001115 277.0859  82.9866 15.27583480 30563

JSON: /api/v1/satellites/66480 · /tle

For live sub-satellite position, see the globe view (requires WebGL).

§ Visibility from observer

Set your observer location to see the next 7 days of passes ≥ 10°. The values pass through the URL so the page stays shareable.

No JS? Fill the form by hand. The geolocation button needs JavaScript.